Regional Weather Roundup
Issued by NWS Newport/Morehead, NC

Current Version | Previous Version | Graphics & Text | Print | Product List | Glossary Off
Versions: 1 2 3 4 5 6 7 8 9 10 11 12 13 14 15 16 17 18 19 20 21 22 23 24 25 26 27 28 29 30 31 32 33 34 35 36 37 38 39 40 41 42 43 44 45 46 47 48 49 50

000
ASUS42 KMHX 050813
RWRMHX
WEATHER ROUNDUP FOR EASTERN NORTH CAROLINA
NATIONAL WEATHER SERVICE NEWPORT/MOREHEAD CITY NC
300 AM EST MON DEC 05 2016

NOTE: "FAIR" INDICATES FEW OR NO CLOUDS BELOW 12,000 FEET
WITH NO SIGNIFICANT WEATHER AND/OR OBSTRUCTIONS TO VISIBILITY

NCZ015>017-031-032-045>047-102-103-050900-
NORTH COAST

CITY           SKY/WX    TMP DP  RH WIND       PRES   REMARKS
EDENTON        LGT RAIN  49  47  92 CALM      30.02F
ELIZABETH CITY LGT RAIN  46  45  96 E5        30.01F
KITTY HAWK     DRIZZLE   50  50 100 E5        30.01F
MANTEO         LGT RAIN  50  49  99 E7        30.02F

$$

NCZ045>047-081-094-103-104-050900-
CENTRAL COAST

CITY           SKY/WX    TMP DP  RH WIND       PRES   REMARKS
FRISCO         RAIN      63  61  93 S15G23    29.99F FOG

$$

NCZ095-097-098-100-101-050900-
SOUTHERN COAST

CITY           SKY/WX    TMP DP  RH WIND       PRES   REMARKS
BEAUFORT       RAIN      63  62  97 SW20      29.98F FOG
CEDAR ISLAND   NOT AVBL
JACKSONVILLE   HVY RAIN  50  49  96 N3        29.96F FOG
PINEY ISLAND   NOT AVBL
WILMINGTON     LGT RAIN  59  59 100 S6        29.95F


$$

NCZ011>013-027>030-043-044-078>080-089-090>093-098-050900-
COASTAL PLAIN

CITY           SKY/WX    TMP DP  RH WIND       PRES   REMARKS
AHOSKIE        HVY RAIN  42  42  98 CALM      30.02F
CLINTON        RAIN      47  47 100 CALM      29.98F
ELIZABETHTOWN  RAIN      47  47 100 CALM      29.96F
GOLDSBORO      LGT RAIN  46  46 100 N3        29.96F FOG
GREENVILLE     LGT RAIN  45  45 100 CALM      30.03S
HAVELOCK       LGT RAIN  54  53  97 NE3       29.99F
KENANSVILLE    RAIN      46  46 100 CALM      29.97F FOG
KINSTON        RAIN      47  46  99 CALM      29.99F
NEW BERN       LGT RAIN  49  48  97 CALM      29.99F
RICHLANDS      LGT RAIN  48  48 100 NE3       29.97F FOG
ROCKY MOUNT    LGT RAIN  44  44 100 N6        30.01S FOG
WASHINGTON     LGT RAIN  46  45  97 E6        30.01F
WHITEVILLE     LGT RAIN  49  48  97 CALM      29.93F

$$

AMZ130-135-150-152-154-156-158-170-250-252-270-ANZ085-086-088-633-658-670-050900-
MARINE OBSERVATIONS

STATION/POSITION TIME  TEMP    WIND        PRES    WAVE   SWELL
                       AIR SEA DIR/SP/G            HT/PER HT/PER
                 (UTC) (F)     (DEG/KT/KT) (MB)    (FT/S) (FT/S)
CHESAPEAKE LIGHT NOT AVBL
64 E VA BEACH    0750   53 60  120/ 12/ 14 1016.8    2/ 8   2/ 8
DUCK             0736   50 54  110/ 14/ 15 1016.0
2 E DUCK         NOT AVBL
OREGON INLET     0736   53 53   90/  9/ 13 1016.2
13E OREGON INLT  NOT AVBL
HATTERAS CG      0736   63 58  160/ 13/ 19 1015.3
DIAMOND BUOY     0750   67 74  180/ 21/ 27 1015.4    4/ 8   3/ 8
CAPE LOOKOUT     0800   63     210/  9/ 11 1014.9
BEAUFORT LAB     0736   63 55  220/ 12/ 19 1014.3
30 SE NEW RVR IN 0708   65 74  210/ 21/ 27 1015.4
30 SE NEW RVR IN NOT AVBL
27 SE WRIGHTSVLE 0708   70 68  200/ 21/ 29 1014.5
5 SE WRIGHTSVLE  0708   60 63  210/  8/ 12 1014.6
225 S CAPE HAT   0750   69 73  170/ 16/ 19 1018.7    4/10   3/10
41 SE CHARLESTON 0750   74 74  190/ 23/ 29 1013.8    7/ 6   2/11

$$




USA.gov is the U.S. government's official web portal to all federal, state and local government web resources and services.